Syracuse, NY

10:25 AM EDT on October 15, 2019 (GMT -0400)
Syracuse Hancock International

Weather History for KSYR - August, 2019

Change the Weather History Date:

Wednesday, August 21, 2019

  Actual Average Record
Temperature  
Mean Temperature 76 °F 69 °F  
Max Temperature 82 °F 80 °F 92 °F (1955)
Min Temperature 68 °F 59 °F 42 °F (1977)
Degree Days  
Heating Degree Days 0 1  
Month to date heating degree days 0 8  
Since 1 June heating degree days 47 77  
Since 1 July heating degree days 0 16  
Cooling Degree Days 10 5  
Month to date cooling degree days 146 121  
Year to date cooling degree days 556 467  
Since 1 June cooling degree days 543 437  
Growing Degree Days 26 (Base 50)    
Moisture  
Dew Point 67 °F    
Average Humidity 84    
Maximum Humidity 93    
Minimum Humidity 58    
Precipitation  
Precipitation 0.55 in 0.12 in 0.91 in (1961)
Month to date precipitation 4.12 2.44  
Year to date precipitation 29.56 23.46  
Snow  
Snow 0.00 in 0.00 in 0.00 in (2002)
Month to date snowfall 0.0 0.0  
Since 1 June snowfall T 0.0  
Since 1 July snowfall T 0.0  
Snow Depth 0.00 in    
Sea Level Pressure  
Sea Level Pressure 29.88 in    
Wind  
Wind Speed 4 mph ()    
Max Wind Speed 20 mph    
Max Gust Speed 28 mph    
Visibility 8.9 miles    
Events Rain , Thunderstorm    
T = Trace of Precipitation, MM = Missing Value Source: Averaged Metar Reports

Daily Weather History Graph

Daily Weather History Graph

Search for Another Location

Airport or City:

Astronomy

Aug. 21, 2019 Rise Set
Actual Time 6:16 AM EDT 7:58 PM EDT
Civil Twilight 5:46 AM EDT 8:28 PM EDT
Nautical Twilight 5:09 AM EDT 9:04 PM EDT
Astronomical Twilight 4:30 AM EDT 9:43 PM EDT
Moon 11:05 PM EDT (8/21) 11:58 AM EDT (8/21)
Length of Visible Light 14h 41m
Length of Day
13h 41m
Waning Gibbous, 69% of the Moon is Illuminated
Aug 21
Waning Gibbous
Aug 23
Last Quarter
Aug 30
New
Sep 5
First Quarter
Sep 14
Full

Hourly Weather History & Observations

Time (EDT) Temp. Heat Index Dew Point Humidity Pressure Visibility Wind Dir Wind Speed Gust Speed Precip Events Conditions
12:54 AM 68.0 °F - 63.0 °F 84% 29.95 in 10.0 mi East 4.6 mph - N/A   Scattered Clouds
1:54 AM 69.1 °F - 63.0 °F 81% 29.94 in 10.0 mi ENE 3.5 mph - N/A   Mostly Cloudy
2:54 AM 68.0 °F - 63.0 °F 84% 29.91 in 10.0 mi ENE 3.5 mph - N/A   Mostly Cloudy
3:54 AM 68.0 °F - 64.0 °F 87% 29.90 in 10.0 mi East 4.6 mph - N/A   Mostly Cloudy
4:54 AM 69.1 °F - 64.0 °F 84% 29.87 in 10.0 mi ENE 3.5 mph - N/A   Mostly Cloudy
5:54 AM 68.0 °F - 64.0 °F 87% 29.86 in 10.0 mi NE 3.5 mph - N/A   Mostly Cloudy
6:38 AM 69.1 °F - 64.9 °F 87% 29.89 in 10.0 mi Calm Calm - N/A Thunderstorm Overcast
6:46 AM 70.0 °F - 64.9 °F 84% 29.89 in 10.0 mi East 3.5 mph - N/A Thunderstorm Thunderstorm
6:54 AM 70.0 °F - 64.9 °F 84% 29.88 in 10.0 mi WNW 5.8 mph - N/A Thunderstorm Thunderstorm
7:20 AM 70.0 °F - 66.0 °F 87% 29.94 in 1.8 mi West 18.4 mph 27.6 mph 0.02 in Rain , Thunderstorm Heavy Thunderstorms and Rain
7:29 AM 69.1 °F - 66.0 °F 90% 29.92 in 2.5 mi WNW 6.9 mph 21.9 mph 0.28 in Rain , Thunderstorm Heavy Thunderstorms and Rain
7:44 AM 69.1 °F - 66.0 °F 90% 29.91 in 5.0 mi North 5.8 mph - 0.32 in Rain , Thunderstorm Light Thunderstorms and Rain
7:54 AM 69.1 °F - 66.0 °F 90% 29.90 in 10.0 mi Calm Calm - 0.32 in Rain , Thunderstorm Light Thunderstorms and Rain
7:58 AM 69.1 °F - 66.0 °F 90% 29.92 in 10.0 mi Calm Calm - 0.00 in Rain Light Rain
8:16 AM 70.0 °F - 66.9 °F 90% 29.93 in 10.0 mi SW 8.1 mph - 0.00 in Rain Light Rain
8:54 AM 71.1 °F - 68.0 °F 90% 29.90 in 10.0 mi SSW 3.5 mph - 0.01 in Rain Light Rain
9:23 AM 71.1 °F - 68.0 °F 90% 29.91 in 10.0 mi South 3.5 mph - 0.00 in Rain Light Rain
9:54 AM 72.0 °F - 68.0 °F 87% 29.89 in 10.0 mi Calm Calm - 0.00 in Rain Light Rain
10:09 AM 72.0 °F - 68.0 °F 87% 29.90 in 9.0 mi South 3.5 mph - 0.00 in Rain Light Rain
10:54 AM 73.0 °F - 69.1 °F 87% 29.89 in 10.0 mi South 3.5 mph - 0.05 in Rain Light Rain
11:01 AM 73.0 °F - 69.1 °F 87% 29.90 in 10.0 mi South 4.6 mph - 0.00 in Rain Light Rain
11:54 AM 72.0 °F - 69.1 °F 91% 29.87 in 10.0 mi South 3.5 mph - 0.01 in Rain Light Rain
12:01 PM 72.0 °F - 69.1 °F 91% 29.89 in 6.0 mi SSW 3.5 mph - 0.00 in Rain Light Rain
12:07 PM 72.0 °F - 69.1 °F 91% 29.88 in 1.8 mi SSE 4.6 mph - 0.01 in Rain Heavy Rain
12:31 PM 71.1 °F - 69.1 °F 93% 29.87 in 4.0 mi South 5.8 mph - 0.16 in Rain Light Rain
12:54 PM 73.0 °F - 69.1 °F 87% 29.86 in 10.0 mi SSE 3.5 mph - 0.16 in   Overcast
1:54 PM 75.9 °F - 69.1 °F 79% 29.87 in 10.0 mi NNW 8.1 mph - N/A   Overcast
2:54 PM 78.1 °F - 69.1 °F 74% 29.85 in 10.0 mi North 3.5 mph - N/A   Scattered Clouds
3:54 PM 78.1 °F - 66.9 °F 68% 29.83 in 10.0 mi Calm Calm - N/A   Mostly Cloudy
4:54 PM 82.9 °F 85.4 °F 66.9 °F 58% 29.82 in 10.0 mi WSW 6.9 mph - N/A   Scattered Clouds
5:54 PM 81.0 °F 83.0 °F 66.0 °F 60% 29.84 in 10.0 mi WSW 6.9 mph - N/A   Scattered Clouds
6:54 PM 82.0 °F 84.1 °F 66.0 °F 58% 29.82 in 10.0 mi Calm Calm - N/A   Scattered Clouds
7:54 PM 75.9 °F - 69.1 °F 79% 29.81 in 10.0 mi East 4.6 mph - N/A   Mostly Cloudy
8:54 PM 73.9 °F - 66.9 °F 79% 29.82 in 10.0 mi ESE 5.8 mph - N/A   Scattered Clouds
9:54 PM 73.0 °F - 68.0 °F 84% 29.83 in 10.0 mi Variable 3.5 mph - N/A   Scattered Clouds
10:54 PM 72.0 °F - 66.9 °F 84% 29.82 in 10.0 mi Calm Calm - N/A   Scattered Clouds
11:54 PM 71.1 °F - 66.9 °F 87% 29.82 in 10.0 mi Calm Calm - N/A   Scattered Clouds